[[{"header":{"parameterUnit":"m.s-1","parameterCategory":1,"la1":30.2991,"la2":30.254,"lo1":-89.0895,"lo2":-89.0444,"dy":0.0017,"dx":0.0017,"nx":28,"ny":28,"refTime":"2024-06-20T21:00:00:Z","depth":0,"parameterNumber":2,"parameterNumberName":"U-component_of_WINDS"},"data":[0,0,0,0,0,0,0,0,0,0,0,0,0,0,0,0,0,0,0,0,0,0,0,0,0,0,0,0,0,0,0,0,0,0,0,0,0,0,0,0,0,0,0,0,0,0,0,0,0,0,0,0,0,0,0,0,0,0,0.4852,0.4852,0,0.4894,0.4894,0.4895,0.4929,0.4929,0.493,0.493,0.4972,0.4972,0.4973,0,0,0,0,0,0,0,0,0,0,0,0,0,0.48,0.4801,0.4852,0.4852,0.4853,0.4894,0.4894,0.4895,0.4929,0.4929,0.493,0.493,0.4971,0.4972,0.4973,0,0,0,0,0,0,0,0,0,0,0,0,0,0.483,0.4801,0.4852,0.4875,0.4877,0.4893,0.4894,0.4895,0.4929,0.4929,0.493,0.493,0.4971,0.4972,0.4973,0.4969,0,0,0.4977,0.4977,0,0,0,0,0,0,0,0,0.4829,0.4832,0.4871,0.4873,0.4876,0.4907,0.4891,0.492,0.4929,0.4909,0.493,0.4931,0.4949,0.4952,0.4959,0.4971,0.4973,0.4977,0.4978,0.4978,0.4978,0,0,0,0,0,0,0,0.4827,0.4831,0.4868,0.4871,0.4875,0.4883,0.4888,0.4897,0.4926,0.4911,0.4913,0.4918,0.4951,0.4958,0.496,0.4974,0.4977,0.4978,0.4979,0.4979,0.4985,0.4984,0,0,0,0,0,0,0.4821,0.4829,0.4867,0.487,0.4853,0.4883,0.4889,0.4896,0.4926,0.4931,0.4917,0.4919,0.4956,0.4959,0.4962,0.4959,0.4978,0.4979,0.498,0.4985,0.4985,0.4984,0,0,0,0,0,0,0.482,0.4824,0.4865,0.485,0.4856,0.4884,0.4892,0.4897,0.4904,0.4931,0.4936,0.4919,0.4956,0.496,0.4967,0.4961,0.498,0.4981,0.4986,0.4985,0.4984,0.4953,0,0,0,0,0,0,0.4818,0.4824,0.4823,0.485,0.4856,0.487,0.4891,0.4897,0.4906,0.4909,0.4934,0.4938,0.4957,0.4965,0.4968,0.4963,0.4982,0.4987,0.4985,0.4985,0.4955,0.4951,0.4948,0,0,0,0,0,0.4816,0.4812,0.4822,0.4827,0.4856,0.487,0.4874,0.4895,0.4905,0.4904,0.4921,0.4938,0.4961,0.4966,0.497,0.4964,0.4987,0.4986,0.4985,0.4956,0.4952,0.4948,0,0,0,0,0,0,0.4783,0.4816,0.4828,0.4832,0.4848,0.4876,0.4875,0.489,0.4903,0.4905,0.4931,0.4937,0.4941,0.4953,0.4958,0.4962,0.4976,0.4976,0.4953,0.4949,0.4946,0.4943,0.4983,0,0,0,0,0,0.4777,0.4785,0.4814,0.4815,0.4822,0.4847,0.4854,0.4869,0.4887,0.4893,0.4911,0.4927,0.4938,0.4944,0.4956,0.4957,0.4963,0.4955,0.4952,0.4949,0.4948,0.4949,0.4945,0.498,0.498,0.498,0,0,0.4763,0.4782,0.4786,0.4809,0.4823,0.4831,0.4853,0.486,0.4866,0.4894,0.4902,0.4916,0.4935,0.4939,0.4941,0.4949,0.494,0.4947,0.4945,0.4945,0.4947,0.4944,0.4941,0.4979,0.4979,0.4979,0,0,0.4741,0.4757,0.4759,0.4773,0.4794,0.4811,0.4811,0.4837,0.4847,0.4855,0.4876,0.4884,0.4902,0.4915,0.4924,0.4907,0.4922,0.491,0.4893,0.4893,0.489,0.4888,0.4882,0.4879,0.4909,0.4909,0.4909,0,0.4721,0.4735,0.4759,0.4765,0.4774,0.48,0.4803,0.4815,0.4838,0.4844,0.4852,0.4876,0.4891,0.4898,0.4893,0.49,0.4901,0.4907,0.4889,0.4887,0.4885,0.4879,0.4877,0.4907,0.4908,0.4908,0.4908,0,0.4709,0.4718,0.4717,0.4739,0.4749,0.4753,0.4777,0.4783,0.4798,0.4813,0.4821,0.484,0.4856,0.4859,0.4873,0.4867,0.4871,0.4884,0.4899,0.488,0.4875,0.4872,0.4905,0.4906,0.4906,0.4907,0,0,0.4667,0.4703,0.4702,0.4712,0.4737,0.4745,0.475,0.4766,0.477,0.4786,0.479,0.4805,0.4817,0.4827,0.4843,0.4844,0.4828,0.4856,0.4857,0.485,0.4823,0.4812,0.4809,0.4839,0.4839,0.4838,0.4821,0,0.4649,0.4661,0.4682,0.4687,0.4695,0.472,0.4724,0.474,0.4755,0.4764,0.478,0.479,0.4805,0.4811,0.4813,0.483,0.4823,0.4832,0.4843,0.4843,0.4836,0.4807,0.4796,0.4779,0.4819,0.4819,0.4819,0,0.463,0.4644,0.4649,0.4673,0.4678,0.4681,0.4697,0.4706,0.4724,0.4734,0.4745,0.4763,0.4769,0.4784,0.4793,0.4798,0.4804,0.4813,0.4813,0.4814,0.4829,0.4806,0.4774,0.4771,0.4816,0.4816,0.4816,0,0.4598,0.4618,0.4624,0.4632,0.4661,0.4663,0.4675,0.4693,0.4701,0.4715,0.472,0.4735,0.4742,0.4753,0.4773,0.4782,0.478,0.4796,0.4788,0.4788,0.4786,0.4786,0.4753,0.4791,0.4791,0.4791,0.4791,0,0.4575,0.4577,0.461,0.4613,0.4616,0.4641,0.4643,0.4657,0.4674,0.468,0.4702,0.4707,0.4735,0.4743,0.4759,0.4764,0.4767,0.4776,0.478,0.4773,0.4772,0.4777,0.4778,0.479,0.4791,0.4791,0.4791,0,0.454,0.4562,0.457,0.4597,0.4603,0.4604,0.4627,0.463,0.4647,0.4654,0.4657,0.4683,0.4694,0.4716,0.4732,0.4743,0.4744,0.4752,0.4738,0.474,0.4731,0.4731,0.47,0.4696,0.4737,0.4737,0.4736,0,0.4524,0.4526,0.4553,0.4559,0.457,0.4579,0.4587,0.4612,0.4619,0.464,0.4641,0.4654,0.4665,0.4682,0.4701,0.4714,0.4722,0.471,0.4724,0.4717,0.4721,0.472,0.472,0.4707,0.4706,0.4706,0.4705,0,0.4492,0.4503,0.4514,0.4529,0.4538,0.4551,0.4565,0.4568,0.4596,0.4603,0.4615,0.4624,0.4641,0.4653,0.4669,0.4681,0.4697,0.4701,0.47,0.4692,0.4684,0.4688,0.4728,0.4701,0.4702,0.4702,0.4702,0.4702,0.4465,0.4468,0.4488,0.4499,0.4512,0.4525,0.453,0.4547,0.4557,0.4573,0.4587,0.4597,0.4615,0.4638,0.4649,0.4657,0.4665,0.4663,0.4663,0.4662,0.4659,0.4683,0.466,0.466,0.466,0.466,0.466,0,0.4434,0.4448,0.4458,0.4477,0.4486,0.4502,0.4518,0.4524,0.4533,0.4548,0.4559,0.4572,0.4584,0.4605,0.4618,0.4621,0.4628,0.4623,0.4623,0.4625,0.4651,0.465,0.4617,0.4617,0.4617,0.4617,0.4617,0.4617,0.4419,0.4424,0.4437,0.4449,0.4463,0.4474,0.4481,0.4493,0.4505,0.4519,0.4529,0.4543,0.456,0.4575,0.4586,0.4592,0.4596,0.4588,0.4596,0.4619,0.4623,0.4627,0.4627,0.4589,0.4589,0.4569,0.4569,0.4569]},{"header":{"parameterUnit":"m.s-1","parameterCategory":1,"la1":30.2991,"la2":30.254,"lo1":-89.0895,"lo2":-89.0444,"dy":0.0017,"dx":0.0017,"nx":28,"ny":28,"refTime":"2024-06-20T21:00:00:Z","depth":0,"parameterNumber":3,"parameterNumberName":"V-component_of_WINDS"},"data":[0,0,0,0,0,0,0,0,0,0,0,0,0,0,0,0,0,0,0,0,0,0,0,0,0,0,0,0,0,0,0,0,0,0,0,0,0,0,0,0,0,0,0,0,0,0,0,0,0,0,0,0,0,0,0,0,0,0,-0.0078,-0.0079,0,-0.0122,-0.0123,-0.0123,-0.0172,-0.0173,-0.0174,-0.0174,-0.0219,-0.0219,-0.022,0,0,0,0,0,0,0,0,0,0,0,0,0,-0.0037,-0.0037,-0.0078,-0.0079,-0.0079,-0.0122,-0.0123,-0.0123,-0.0172,-0.0173,-0.0174,-0.0175,-0.0219,-0.0219,-0.022,0,0,0,0,0,0,0,0,0,0,0,0,0,-0.0065,-0.0037,-0.0078,-0.0109,-0.0112,-0.0122,-0.0123,-0.0124,-0.0172,-0.0173,-0.0174,-0.0175,-0.0218,-0.0219,-0.022,-0.0203,0,0,-0.0222,-0.0222,0,0,0,0,0,0,0,0,-0.0063,-0.0067,-0.0104,-0.0107,-0.011,-0.0143,-0.0124,-0.015,-0.0172,-0.0149,-0.0174,-0.0176,-0.0193,-0.0195,-0.0201,-0.0205,-0.0207,-0.0222,-0.0223,-0.0223,-0.0223,0,0,0,0,0,0,0,-0.0061,-0.0065,-0.0096,-0.0104,-0.0108,-0.0121,-0.0126,-0.013,-0.0164,-0.0151,-0.0155,-0.016,-0.0195,-0.02,-0.0203,-0.0207,-0.0222,-0.0223,-0.0223,-0.0224,-0.0201,-0.02,0,0,0,0,0,0,-0.0055,-0.0063,-0.0094,-0.0097,-0.0089,-0.012,-0.0126,-0.0131,-0.0164,-0.017,-0.0159,-0.0162,-0.0199,-0.0202,-0.0204,-0.0188,-0.0223,-0.0224,-0.0224,-0.0202,-0.0201,-0.0199,0,0,0,0,0,0,-0.0054,-0.0057,-0.0092,-0.0081,-0.0086,-0.012,-0.0125,-0.0132,-0.0138,-0.017,-0.0176,-0.0158,-0.02,-0.0203,-0.0203,-0.019,-0.0224,-0.0225,-0.0203,-0.0202,-0.02,-0.0153,0,0,0,0,0,0,-0.0052,-0.0056,-0.005,-0.0081,-0.0087,-0.009,-0.0124,-0.0132,-0.0139,-0.0143,-0.0171,-0.0177,-0.0201,-0.0202,-0.0204,-0.0191,-0.0225,-0.0205,-0.0202,-0.0201,-0.0156,-0.015,-0.0145,0,0,0,0,0,-0.0051,-0.0035,-0.005,-0.0053,-0.008,-0.0089,-0.0093,-0.0121,-0.0138,-0.0132,-0.0153,-0.0176,-0.0191,-0.0201,-0.0204,-0.0192,-0.0205,-0.0203,-0.0201,-0.0158,-0.0151,-0.0145,0,0,0,0,0,0,-0.0001,-0.0039,-0.0056,-0.0049,-0.0066,-0.0098,-0.0091,-0.0112,-0.0124,-0.0128,-0.0162,-0.0168,-0.0164,-0.0178,-0.0189,-0.0178,-0.0202,-0.02,-0.0168,-0.0162,-0.0157,-0.0153,-0.0226,0,0,0,0,0,0.0011,0.0006,-0.0027,-0.0018,-0.0026,-0.0057,-0.0062,-0.0082,-0.0101,-0.0108,-0.0128,-0.0145,-0.0154,-0.0159,-0.0168,-0.0158,-0.0166,-0.0151,-0.0146,-0.0141,-0.0139,-0.0136,-0.013,-0.0192,-0.0192,-0.0192,0,0,0.0035,0.0013,0.0013,-0.0009,-0.0024,-0.0028,-0.0062,-0.0065,-0.0068,-0.0108,-0.0109,-0.0125,-0.0146,-0.0141,-0.014,-0.0153,-0.0124,-0.0138,-0.0134,-0.0135,-0.0133,-0.0127,-0.0122,-0.019,-0.019,-0.0191,0,0,0.0077,0.006,0.0065,0.0051,0.0028,0.0007,0.0008,-0.0021,-0.0033,-0.0035,-0.0065,-0.007,-0.0084,-0.0098,-0.0107,-0.0073,-0.0095,-0.0075,-0.0046,-0.0042,-0.0037,-0.0033,-0.0021,-0.0017,-0.0073,-0.0073,-0.0072,0,0.011,0.0102,0.0071,0.007,0.0061,0.0024,0.0029,0.0016,-0.0008,-0.0014,-0.0028,-0.0047,-0.0064,-0.0063,-0.0055,-0.0061,-0.0061,-0.0071,-0.0036,-0.0032,-0.0028,-0.0017,-0.0013,-0.007,-0.007,-0.0071,-0.0071,0,0.0144,0.0139,0.0146,0.0122,0.0114,0.0116,0.0085,0.008,0.006,0.004,0.0038,0.0017,0.0001,-0.0,-0.0019,-0.0003,-0.001,-0.0029,-0.0054,-0.0019,-0.001,-0.0006,-0.0066,-0.0067,-0.0068,-0.0069,0,0,0.0217,0.0175,0.0178,0.0166,0.0138,0.0133,0.0133,0.0118,0.0114,0.0098,0.0097,0.0085,0.0066,0.0056,0.0034,0.0038,0.0066,0.0017,0.0016,0.0027,0.0082,0.0097,0.0103,0.005,0.0051,0.0052,0.0084,0,0.0254,0.0251,0.0222,0.0228,0.0222,0.0186,0.0186,0.0168,0.0149,0.0142,0.0121,0.0113,0.0089,0.0082,0.0084,0.0062,0.0076,0.0059,0.0049,0.0049,0.0056,0.0108,0.0124,0.0156,0.0088,0.0088,0.0089,0,0.0297,0.0283,0.0287,0.0257,0.0254,0.0254,0.0237,0.023,0.0209,0.0195,0.0183,0.0158,0.0155,0.0132,0.0127,0.0116,0.0109,0.0098,0.0098,0.0097,0.0071,0.0108,0.0165,0.017,0.0094,0.0094,0.0094,0,0.035,0.0332,0.0332,0.0323,0.0288,0.0289,0.0274,0.0252,0.0244,0.0229,0.0223,0.0208,0.02,0.0189,0.016,0.0146,0.0159,0.0133,0.0147,0.0147,0.0152,0.0152,0.0209,0.0147,0.0147,0.0147,0.0147,0,0.0394,0.0399,0.0355,0.0355,0.0358,0.0325,0.0329,0.0311,0.0291,0.0286,0.0254,0.0251,0.0214,0.0206,0.0184,0.0183,0.0179,0.0168,0.0162,0.0171,0.0172,0.0167,0.0164,0.0148,0.0148,0.0148,0.0148,0,0.0454,0.0425,0.0423,0.0389,0.0381,0.0385,0.0356,0.0355,0.0333,0.0328,0.0325,0.0291,0.028,0.0251,0.0232,0.0217,0.0223,0.0211,0.023,0.0226,0.0242,0.0241,0.0298,0.0303,0.0238,0.0239,0.0239,0,0.0485,0.0487,0.0453,0.0448,0.0435,0.0427,0.0418,0.0384,0.0377,0.0352,0.0353,0.034,0.0327,0.0311,0.0285,0.027,0.0259,0.0279,0.0256,0.0265,0.0259,0.0259,0.0259,0.0285,0.0286,0.0286,0.0287,0,0.0542,0.0527,0.0516,0.0499,0.049,0.0475,0.0459,0.0456,0.0419,0.0412,0.04,0.039,0.037,0.0357,0.0338,0.0323,0.0299,0.0294,0.0297,0.0306,0.0317,0.0311,0.0244,0.0293,0.0293,0.0292,0.0292,0.0292,0.0588,0.0588,0.0564,0.0552,0.0536,0.0521,0.0518,0.0495,0.0485,0.0466,0.0447,0.0437,0.0414,0.0386,0.0372,0.0364,0.0351,0.0355,0.0356,0.0357,0.0361,0.0318,0.036,0.036,0.036,0.0359,0.0359,0,0.0643,0.0626,0.0615,0.0593,0.0583,0.0561,0.0541,0.0535,0.0526,0.0507,0.0495,0.048,0.0467,0.0439,0.0423,0.0421,0.041,0.0418,0.0418,0.0415,0.0373,0.0373,0.0428,0.0428,0.0428,0.0428,0.0428,0.0428,0.0671,0.067,0.0652,0.0641,0.0623,0.0613,0.0604,0.059,0.0574,0.0559,0.0548,0.0529,0.0506,0.0488,0.0474,0.0466,0.0462,0.0474,0.0463,0.0425,0.0418,0.0412,0.0411,0.0473,0.0473,0.0505,0.0505,0.0506]}]]